• In France
  • List of Countries
  • For 7 days
  • Water Temperature
  • Satellite Maps
  • Weather Map
  • Weather Widgets
  • user-avatar
    Login

    Hourly Weather Balchik

    Today, 20 November, Monday

    Time Temperature Precipitation Wind Pressure Humidity
    00:00 +5°C° 0.2 mm 3 mps 734 mmHg 84%
    01:00 +5°C° 0.2 mm 3 mps 734 mmHg 84%
    02:00 +5°C° 0 mm 3 mps 734 mmHg 85%
    03:00 +5°C° 0.4 mm 3 mps 734 mmHg 86%
    04:00 +5°C° 0.4 mm 4 mps 734 mmHg 86%
    05:00 +5°C° 0.4 mm 4 mps 734 mmHg 87%
    06:00 +3°C° 1.1 mm 5 mps 734 mmHg 87%
    07:00 +3°C° 1.1 mm 5 mps 734 mmHg 87%
    08:00 +3°C° 0 mm 6 mps 734 mmHg 85%
    09:00 +3°C° 1.2 mm 7 mps 734 mmHg 81%
    10:00 +3°C° 1.2 mm 7 mps 734 mmHg 77%
    11:00 +2°C° 1.2 mm 8 mps 734 mmHg 73%
    12:00 +2°C° 0.7 mm 8 mps 734 mmHg 71%
    13:00 +2°C° 0.7 mm 8 mps 734 mmHg 69%
    14:00 +2°C° 0.7 mm 8 mps 734 mmHg 67%
    15:00 +2°C° 0.3 mm 8 mps 734 mmHg 68%
    16:00 +3°C° 0.3 mm 7 mps 735 mmHg 70%
    17:00 +3°C° 0.3 mm 6 mps 735 mmHg 71%
    18:00 +3°C° 0 mm 6 mps 735 mmHg 69%
    19:00 +3°C° 0 mm 6 mps 735 mmHg 68%
    20:00 +3°C° 0 mm 6 mps 735 mmHg 66%
    21:00 +3°C° 0 mm 6 mps 736 mmHg 65%
    22:00 +2°C° 0 mm 6 mps 736 mmHg 64%
    23:00 +2°C° 0 mm 6 mps 737 mmHg 63%

    Tomorrow, 21 November, Tuesday

    Time Temperature Precipitation Wind Pressure Humidity
    00:00 +1°C° 0 mm 6 mps 737 mmHg 64%
    01:00 +1°C° 0 mm 5 mps 737 mmHg 66%
    02:00 +1°C° 0 mm 5 mps 738 mmHg 67%
    03:00 +1°C° 0 mm 5 mps 738 mmHg 69%
    04:00 0°C° 0 mm 5 mps 738 mmHg 71%
    05:00 0°C° 0 mm 5 mps 739 mmHg 73%
    06:00 0°C° 0 mm 5 mps 739 mmHg 74%
    07:00 0°C° 0 mm 5 mps 739 mmHg 75%
    08:00 0°C° 0 mm 4 mps 740 mmHg 77%
    09:00 +1°C° 0 mm 5 mps 740 mmHg 71%
    10:00 +2°C° 0 mm 5 mps 740 mmHg 65%
    11:00 +3°C° 0 mm 5 mps 741 mmHg 60%
    12:00 +5°C° 0 mm 5 mps 740 mmHg 57%
    13:00 +5°C° 0 mm 5 mps 740 mmHg 53%
    14:00 +6°C° 0 mm 5 mps 739 mmHg 50%
    15:00 +5°C° 0 mm 4 mps 739 mmHg 54%
    16:00 +4°C° 0 mm 4 mps 739 mmHg 57%
    17:00 +4°C° 0 mm 3 mps 739 mmHg 60%
    18:00 +3°C° 0 mm 3 mps 739 mmHg 62%
    19:00 +3°C° 0 mm 3 mps 739 mmHg 64%
    20:00 +3°C° 0 mm 3 mps 740 mmHg 65%
    21:00 +3°C° 0 mm 3 mps 740 mmHg 65%
    22:00 +3°C° 0 mm 3 mps 740 mmHg 65%
    23:00 +3°C° 0 mm 3 mps 740 mmHg 65%

    Day after tomorrow, 22 November, Wednesday

    Time Temperature Precipitation Wind Pressure Humidity
    00:00 +3°C° 0 mm 3 mps 740 mmHg 65%
    01:00 +3°C° 0 mm 3 mps 740 mmHg 66%
    02:00 +3°C° 0 mm 3 mps 740 mmHg 67%
    03:00 +3°C° 0.1 mm 3 mps 739 mmHg 69%
    04:00 +3°C° 0.1 mm 3 mps 739 mmHg 72%
    05:00 +4°C° 0.1 mm 2 mps 739 mmHg 74%
    06:00 +4°C° 0 mm 2 mps 739 mmHg 75%
    07:00 +4°C° 0 mm 2 mps 739 mmHg 76%
    08:00 +4°C° 0 mm 2 mps 740 mmHg 77%
    09:00 +4°C° 0 mm 3 mps 740 mmHg 72%
    10:00 +5°C° 0 mm 3 mps 740 mmHg 68%
    11:00 +7°C° 0 mm 3 mps 740 mmHg 63%
    12:00 +8°C° 0 mm 3 mps 740 mmHg 60%
    13:00 +8°C° 0 mm 3 mps 740 mmHg 58%
    14:00 +9°C° 0 mm 3 mps 740 mmHg 55%
    15:00 +8°C° 0 mm 2 mps 740 mmHg 59%
    16:00 +8°C° 0 mm 2 mps 740 mmHg 62%
    17:00 +8°C° 0 mm 1 mps 741 mmHg 66%
    18:00 +8°C° 0 mm 1 mps 741 mmHg 67%
    19:00 +7°C° 0 mm 1 mps 741 mmHg 69%
    20:00 +6°C° 0 mm 0 mps 741 mmHg 71%
    21:00 +7°C° 0 mm 1 mps 741 mmHg 72%
    22:00 +7°C° 0 mm 1 mps 741 mmHg 74%
    23:00 +7°C° 0 mm 1 mps 741 mmHg 75%

    23 November, Thursday

    Time Temperature Precipitation Wind Pressure Humidity
    00:00 +7°C° 0 mm 1 mps 741 mmHg 77%
    01:00 +7°C° 0 mm 1 mps 741 mmHg 78%
    02:00 +7°C° 0 mm 1 mps 741 mmHg 80%
    03:00 +6°C° 0 mm 1 mps 741 mmHg 81%
    04:00 +5°C° 0 mm 2 mps 741 mmHg 82%
    05:00 +5°C° 0 mm 2 mps 741 mmHg 84%
    06:00 +5°C° 0 mm 2 mps 741 mmHg 84%
    07:00 +5°C° 0 mm 2 mps 741 mmHg 84%
    08:00 +5°C° 0 mm 2 mps 742 mmHg 85%
    09:00 +6°C° 0 mm 2 mps 742 mmHg 79%
    10:00 +8°C° 0 mm 2 mps 742 mmHg 72%
    11:00 +9°C° 0 mm 2 mps 742 mmHg 66%
    12:00 +10°C° 0 mm 2 mps 742 mmHg 64%
    13:00 +10°C° 0 mm 2 mps 742 mmHg 61%
    14:00 +12°C° 0 mm 2 mps 742 mmHg 58%
    15:00 +10°C° 0 mm 2 mps 743 mmHg 63%
    16:00 +9°C° 0 mm 2 mps 743 mmHg 68%
    17:00 +8°C° 0 mm 2 mps 743 mmHg 73%
    18:00 +8°C° 0 mm 2 mps 743 mmHg 76%
    19:00 +7°C° 0 mm 2 mps 744 mmHg 79%
    20:00 +7°C° 0 mm 2 mps 744 mmHg 82%
    21:00 +8°C° 0 mm 1 mps 744 mmHg 84%
    22:00 +7°C° 0 mm 1 mps 745 mmHg 86%
    23:00 +7°C° 0 mm 1 mps 745 mmHg 87%

    24 November, Friday

    Time Temperature Precipitation Wind Pressure Humidity
    00:00 +7°C° 0 mm 1 mps 745 mmHg 88%
    01:00 +7°C° 0 mm 1 mps 745 mmHg 88%
    02:00 +7°C° 0 mm 1 mps 744 mmHg 89%
    03:00 +7°C° 0 mm 1 mps 744 mmHg 89%
    04:00 +7°C° 0 mm 1 mps 744 mmHg 89%
    05:00 +7°C° 0 mm 1 mps 744 mmHg 89%
    06:00 +7°C° 0 mm 1 mps 745 mmHg 89%
    07:00 +7°C° 0 mm 1 mps 745 mmHg 89%
    08:00 +7°C° 0 mm 1 mps 745 mmHg 89%
    09:00 +8°C° 0 mm 1 mps 745 mmHg 83%
    10:00 +10°C° 0 mm 1 mps 746 mmHg 77%
    11:00 +11°C° 0 mm 1 mps 746 mmHg 71%
    12:00 +11°C° 0 mm 1 mps 746 mmHg 68%
    13:00 +12°C° 0 mm 1 mps 746 mmHg 66%
    14:00 +12°C° 0 mm 1 mps 745 mmHg 63%
    15:00 +12°C° 0 mm 1 mps 745 mmHg 68%
    16:00 +11°C° 0 mm 1 mps 746 mmHg 72%
    17:00 +9°C° 0 mm 2 mps 746 mmHg 76%
    18:00 +9°C° 0 mm 2 mps 746 mmHg 79%
    19:00 +8°C° 0 mm 2 mps 746 mmHg 82%
    20:00 +8°C° 0 mm 2 mps 746 mmHg 86%
    21:00 +8°C° 0 mm 1 mps 747 mmHg 87%
    22:00 +8°C° 0 mm 1 mps 747 mmHg 88%
    23:00 +8°C° 0 mm 1 mps 747 mmHg 89%

    25 November, Saturday

    Time Temperature Precipitation Wind Pressure Humidity
    00:00 +8°C° 0 mm 1 mps 747 mmHg 90%
    01:00 +8°C° 0 mm 1 mps 747 mmHg 90%
    02:00 +8°C° 0 mm 1 mps 747 mmHg 91%
    03:00 +7°C° 0 mm 1 mps 747 mmHg 91%
    04:00 +7°C° 0 mm 1 mps 747 mmHg 91%
    05:00 +7°C° 0 mm 1 mps 747 mmHg 91%
    06:00 +7°C° 0 mm 1 mps 747 mmHg 92%
    07:00 +6°C° 0 mm 2 mps 748 mmHg 92%
    08:00 +6°C° 0 mm 2 mps 748 mmHg 92%
    09:00 +8°C° 0 mm 2 mps 748 mmHg 85%
    10:00 +9°C° 0 mm 2 mps 748 mmHg 78%
    11:00 +11°C° 0 mm 3 mps 748 mmHg 71%
    12:00 +11°C° 0 mm 3 mps 748 mmHg 68%
    13:00 +12°C° 0 mm 3 mps 748 mmHg 65%
    14:00 +12°C° 0 mm 3 mps 747 mmHg 62%
    15:00 +11°C° 0 mm 3 mps 747 mmHg 67%
    16:00 +10°C° 0 mm 3 mps 747 mmHg 72%
    17:00 +9°C° 0 mm 3 mps 747 mmHg 77%
    18:00 +9°C° 0 mm 3 mps 747 mmHg 79%
    19:00 +8°C° 0 mm 3 mps 747 mmHg 82%
    20:00 +7°C° 0 mm 4 mps 747 mmHg 84%
    21:00 +7°C° 0 mm 4 mps 747 mmHg 85%
    22:00 +7°C° 0 mm 4 mps 747 mmHg 86%
    23:00 +6°C° 0 mm 4 mps 747 mmHg 87%
    Show more